Location: *
(43.4667°N, 11.6833°E)
Time: 04:04:05
(UTC+00:00)

COSMOS 2428 - Pass Details

Date: 19 July 2019
Orbit: 846 x 855 km, 70.9° (Epoch: 20 August)

Event Time Altitude Azimuth Distance (km) Brightness Sun altitude
Exits shadow 22:17:53 13° 238° (WSW) 2,299 4.8 -24.2°
Maximum altitude 22:22:38 38° 303° (WNW) 1,280 3.9 -24.4°
Drops below altitude 10° 22:27:58 10° 12° (NNE) 2,495 6.0 -24.7°
Sets 22:30:37 0° 20° (NNE) 3,434 6.8 -24.8°
